Regional Weather Roundup
Issued by NWS Kansas City/Pleasant Hill, MO

Home | Current Version | Previous Version | Graphics & Text | Print | Product List | Glossary Off
Versions: 1 2 3 4 5 6 7 8 9 10 11 12 13 14 15 16 17 18 19 20 21 22 23 24 25 26 27 28 29 30 31 32 33 34 35 36 37 38 39 40 41 42 43 44 45 46 47 48 49 50

708
ASUS43 KEAX 202110
RWREAX

WEATHER ROUNDUP FOR EASTERN KANSAS AND NORTHWEST MISSOURI
NATIONAL WEATHER SERVICE KANSAS CITY/PLEASANT HILL MO
400 PM CDT FRI OCT 20 2017

KSZ040-057-103>105-MOZ028-029-037-043-202200-
...KANSAS CITY METROPOLITAN AREA...

CITY           SKY/WX    TMP DP  RH WIND       PRES   REMARKS
K.C. INTL      PTSUNNY   72  59  63 S23       29.90F
K.C. DOWNTOWN  MOSUNNY   75  59  57 SE13G21   29.91F
LEES SUMMIT    MOSUNNY   72  59  63 SE21G29   29.94F
OLATHE - IXD   MOSUNNY   74  58  57 S24G31    29.91F
OLATHE - OJC   SUNNY     71  57  61 S18G31    29.92F
LAWRENCE       CLOUDY    77  60  55 SE23G32   29.87F

$$

MOZ001>008-011>017-020>025-030>033-038>040-044>046-053-054-202200-
...NORTHERN AND CENTRAL MISSOURI...

CITY           SKY/WX    TMP DP  RH WIND       PRES   REMARKS
ST. JOSEPH     LGT RAIN  76  59  55 S22G32    29.85F
MOSBY          MOCLDY    72  55  56 S15G22    29.92F
WARRENSBURG    PTSUNNY   72  55  56 SE16      29.95F
WHITEMAN AFB   CLOUDY    70  57  63 S12       29.94F
CLINTON        CLOUDY    72  57  60 S12G17    29.99F
SEDALIA        CLOUDY    71  56  58 S14       30.00F
WARSAW         NOT AVBL
CHILLICOTHE      N/A     71  56  58 SE12G21   29.95F
KIRKSVILLE     CLOUDY    71  54  54 S16       29.97F

$$

MOZ041-047>049-056>058-063>065-088>090-097-202200-
...EASTERN AND SOUTHERN MISSOURI...

CITY           SKY/WX    TMP DP  RH WIND       PRES   REMARKS
ST. LOUIS INTL CLOUDY    74  50  42 SE14      30.08F
SPIRIT OF STL  CLOUDY    75  53  46 SE7       30.05F
COLUMBIA       CLOUDY    71  52  50 S12       30.02F
JEFFERSON CITY PTSUNNY   73  48  41 S12       30.02F
ROLLA          SUNNY     72  50  45 SE13      30.07S
OSAGE BEACH    CLOUDY    70  51  51 S8        30.04F
SPRINGFIELD    CLOUDY    73  55  53 S9        30.03F
BRANSON        CLOUDY    70  57  64 S16G24    30.07F
JOPLIN         SUNNY     75  56  51 S15G26    29.98F
WEST PLAINS    PTSUNNY   72  53  51 SE10      30.09F

$$

IAZ060-094-KSZ022-034>040-054-083-096-NEZ052-066-093-202200-
...KANSAS...SOUTHEAST NEBRASKA AND IOWA...

CITY           SKY/WX    TMP DP  RH WIND       PRES   REMARKS
TOPEKA         SUNNY     79  59  50 S22G33    29.84F
MANHATTAN      MOSUNNY   78  59  51 S25G39    29.77F
EMPORIA        MOSUNNY   76  58  53 S24G38    29.84F
CHANUTE        SUNNY     74  58  57 S23G31    29.92F
WICHITA        MOSUNNY   75  59  57 S26G37    29.81F
OMAHA          MOSUNNY   78  58  49 S30G39    29.74F
LINCOLN        PTSUNNY   76  58  53 S32G49    29.71F
FALLS CITY     MOSUNNY   76  58  53 S26G38    29.81F
LAMONI         LGT RAIN  71  55  56 S13G24    29.90F
DES MOINES     PTSUNNY   73  51  46 S21G35    29.86F

$$





USA.gov is the U.S. government's official web portal to all federal, state and local government web resources and services.